Nogales, AZ

4:01 PM MST on April 22, 2018 (GMT -0700)
Nogales International

Weather History for KOLS - December, 2012

Change the Weather History Date:

Saturday, December 1, 2012

  Actual Average (KFHU) Record (KFHU)
Temperature  
Mean Temperature 57 °F -  
Max Temperature 77 °F 61 °F 77 °F (1999)
Min Temperature 37 °F 39 °F 25 °F (1991)
Degree Days  
Heating Degree Days 8    
Growing Degree Days 7 (Base 50)    
Moisture  
Dew Point 23 °F    
Average Humidity 38    
Maximum Humidity 73    
Minimum Humidity 7    
Precipitation  
Precipitation 0.00 in - - ()
Sea Level Pressure  
Sea Level Pressure 30.06 in    
Wind  
Wind Speed 3 mph (ESE)    
Max Wind Speed 8 mph    
Max Gust Speed -    
Visibility 10 miles    
Events      
Averages and records for this station are not official NWS values.
T = Trace of Precipitation, MM = Missing Value Source: NWS Daily Summary

Daily Weather History Graph

Daily Weather History Graph

Search for Another Location

Airport or City:

Astronomy

Dec. 01, 2012 Rise Set
Actual Time 7:05 AM MST 5:20 PM MST
Civil Twilight 6:38 AM MST 5:46 PM MST
Nautical Twilight 6:08 AM MST 6:16 PM MST
Astronomical Twilight 5:39 AM MST 6:45 PM MST
Moon 8:10 PM MST (12/1) 9:22 AM MST (12/1)
Length of Visible Light 11h 07m
Length of Day
10h 14m
Waning Gibbous, 91% of the Moon is Illuminated
Dec 1
Waning Gibbous
Dec 6
Last Quarter
Dec 13
New
Dec 19
First Quarter
Dec 28
Full

Hourly Weather History & Observations

Time (MST) Temp. Windchill Dew Point Humidity Pressure Visibility Wind Dir Wind Speed Gust Speed Precip Events Conditions
12:54 AM 42.1 °F - 30.0 °F 62% 30.05 in 10.0 mi Calm Calm - N/A   Clear
1:54 AM 44.1 °F 41.5 °F 30.9 °F 60% 30.02 in 10.0 mi South 4.6 mph - N/A   Clear
2:54 AM 42.8 °F 38.0 °F 30.2 °F 61% 30.15 in 10.0 mi NE 8.1 mph - N/A   Clear
3:54 AM 42.8 °F - 30.2 °F 61% 30.14 in 10.0 mi Calm Calm - N/A   Clear
4:54 AM 37.9 °F 35.5 °F 28.9 °F 70% 30.03 in 10.0 mi ESE 3.5 mph - N/A   Clear
5:54 AM 39.9 °F 36.7 °F 30.9 °F 70% 30.05 in 10.0 mi ENE 4.6 mph - N/A   Clear
6:54 AM 37.0 °F 34.5 °F 28.9 °F 73% 30.09 in 10.0 mi WSW 3.5 mph - N/A   Clear
7:54 AM 41.0 °F - 30.0 °F 65% 30.11 in 10.0 mi Calm Calm - N/A   Clear
8:54 AM 51.1 °F - 33.1 °F 50% 30.10 in 10.0 mi SE 3.5 mph - N/A   Clear
9:54 AM 57.0 °F - 33.1 °F 40% 30.10 in 10.0 mi Calm Calm - N/A   Clear
10:54 AM 64.4 °F - 33.8 °F 32% 30.17 in 10.0 mi SW 3.5 mph - N/A   Clear
11:54 AM 71.1 °F - 28.9 °F 21% 30.04 in 10.0 mi SW 5.8 mph - N/A   Clear
12:54 PM 73.4 °F - 19.4 °F 13% 30.11 in 10.0 mi WSW 3.5 mph - N/A   Clear
1:54 PM 75.2 °F - 8.6 °F 8% 30.10 in 10.0 mi WSW 6.9 mph - N/A   Clear
2:54 PM 77.0 °F - 6.1 °F 7% 29.96 in 10.0 mi NW 5.8 mph - N/A   Clear
3:54 PM 77.0 °F - 12.9 °F 9% 29.96 in 10.0 mi Variable 3.5 mph - N/A   Clear
4:54 PM 73.0 °F - 14.0 °F 11% 29.98 in 10.0 mi NNW 5.8 mph - N/A   Clear
5:54 PM 66.0 °F - 12.9 °F 13% 30.00 in 10.0 mi North 3.5 mph - N/A   Clear
6:54 PM 55.0 °F - 16.0 °F 22% 30.04 in 10.0 mi East 5.8 mph - N/A   Clear
7:54 PM 51.1 °F - 15.1 °F 24% 30.06 in 10.0 mi ESE 3.5 mph - N/A   Clear
8:54 PM 51.1 °F - 19.0 °F 28% 30.05 in 10.0 mi East 4.6 mph - N/A   Clear
9:54 PM 48.9 °F - 19.0 °F 31% 30.04 in 10.0 mi Calm Calm - N/A   Clear
10:54 PM 46.9 °F - 19.0 °F 33% 30.04 in 10.0 mi East 6.9 mph - N/A   Clear
11:54 PM 45.0 °F - 19.9 °F 37% 30.03 in 10.0 mi Calm Calm - N/A   Clear